CZ-6A DEB, 54460

Orbit data source: Space-Track

CZ-6A DEB, 54460 is space debris in SSO originally from a launch on Fri, 11 Nov 2022 UTC launched from the Taiyaun Space Center, China (TSC). Debris objects in space refer to the collection of defunct objects orbiting the Earth. Examples of debris include non-operational satellites, rocket bodies, and fragments generated from explosions, collisions, or faulty payload assembly.

Loading next visibility...
Identifier
54460, 2022-151GL
Orbit
SSO
Country
Flag of CNCN / PRC
Related business
Manufacturer
SAST
Mission
Spacecraft
Bus & Motor
Unknown
Mass
Unknown
Launch date (UTC)
2022-11-11 (4 years ago)
Launch vehicle
Unknown
Launch site
Taiyaun Space Center, China (TSC)
Object type
Payload
Rocket body
Debris
Shape & HBR
Unknown shape, 0.1 m
Radar Cross Section
Small (<0.1 m²)

Expand to show TLE details & history
Last TLE update: 2 days ago

TLE from 2 days ago
0 CZ-6A DEB
1 54460U 22151GL  26171.02711031  .00001027  00000-0  34249-3 0  9997
2 54460  98.6746 204.1592 0123361  63.7822 297.5984 14.35465906188057
Epoch: 2026-06-20T00:39Z
TLE epoch observation values (Epoch: 2026-06-20T00:39:02.330Z)
Latitude
-0.00004°
Longitude
-73.84813°
Altitude
736.438 km
Speed
7.508 km/s
True Right ascension
13h 36m 38s
True Declination
0° 00' 00"
Sunlit
Object was in daylight at epoch
Visualization orbit readout
Latitude
Unknown
Longitude
Unknown
Altitude
Unknown
Speed
Unknown
Apparent Right ascension
Unknown
Apparent Declination
Unknown
Sunlit
N/A
Visualization observer readout
Local Sidereal Time
21:56:56
Azimuth
Unknown
Elevation
Unknown
Doppler factor
Unknown
Orbital elements
Apogee altitude
858.842 km
Perigee altitude
682.466 km
Semi-major axis
7,148.791 km
Eccentricity
0.01234
Inclination
98.6746°
RAAN
204.1592°
Arg. of periapsis
63.7822°
True anomaly
296.33672°
Mean anomaly
297.5984°
Eccentric anomaly
296.96845°
Mean motion
3.59083 °/min
Orbital period
100.26 mins
BSTAR
0.00034249
Loading maneuver chart data...
Computing Atmospheric mass density...
Loading historical data...
Loading historical data...
Loading historical data...
Loading historical data...
Loading historical data...
Loading historical data...
Loading historical data...

Documentation

Showing up to 5 results
|